Time,TemperatureF,DewpointF,PressureIn,WindDirection,WindDirectionDegrees,WindSpeedMPH,WindSpeedGustMPH,Humidity,HourlyPrecipIn,Conditions,Clouds,dailyrainin,SoftwareType,DateUTC
2013-01-25 00:01:00,66.9,60.5,31.22,NNW,338,3.0,3.0,80,0.00,,,0.00,Wunderground v.1.15,2013-01-25 05:01:00,
2013-01-25 00:03:00,66.9,60.5,31.22,NE,39,3.0,4.0,80,0.00,,,0.00,Wunderground v.1.15,2013-01-25 05:03:00,
2013-01-25 00:06:00,66.8,60.1,31.22,NNE,20,3.0,4.0,79,0.00,,,0.00,Wunderground v.1.15,2013-01-25 05:06:00,
2013-01-25 00:09:00,66.8,60.4,31.22,North,11,2.0,5.0,80,0.00,,,0.00,Wunderground v.1.15,2013-01-25 05:09:00,
2013-01-25 00:14:00,66.8,59.7,31.22,NNW,346,3.0,6.0,78,0.00,,,0.00,Wunderground v.1.15,2013-01-25 05:14:00,
2013-01-25 00:20:00,66.8,59.7,31.22,North,360,3.0,7.0,78,0.00,,,0.00,Wunderground v.1.15,2013-01-25 05:20:00,
2013-01-25 00:26:00,66.9,59.8,31.21,NW,314,3.0,7.0,78,0.00,,,0.00,Wunderground v.1.15,2013-01-25 05:26:00,
2013-01-25 00:31:00,66.9,59.8,31.21,ENE,77,3.0,5.0,78,0.00,,,0.00,Wunderground v.1.15,2013-01-25 05:31:00,
2013-01-25 00:37:00,66.8,59.4,31.21,NNW,338,3.0,5.0,77,0.00,,,0.00,Wunderground v.1.15,2013-01-25 05:37:00,
2013-01-25 00:43:00,66.8,59.4,31.21,NE,47,3.0,6.0,77,0.00,,,0.00,Wunderground v.1.15,2013-01-25 05:43:00,
2013-01-25 00:49:00,66.8,59.4,31.21,NNE,32,2.0,6.0,77,0.00,,,0.00,Wunderground v.1.15,2013-01-25 05:49:00,
2013-01-25 00:54:00,66.7,59.3,31.22,NNW,342,2.0,3.0,77,0.00,,,0.00,Wunderground v.1.15,2013-01-25 05:54:00,
2013-01-25 01:00:00,66.7,59.6,31.22,NNE,22,2.0,6.0,78,0.00,,,0.00,Wunderground v.1.15,2013-01-25 06:00:00,
2013-01-25 01:05:00,66.6,59.2,31.22,East,94,3.0,6.0,77,0.00,,,0.00,Wunderground v.1.15,2013-01-25 06:05:00,
2013-01-25 01:11:00,66.7,59.6,31.22,North,5,3.0,3.0,78,0.00,,,0.00,Wunderground v.1.15,2013-01-25 06:11:00,
2013-01-25 01:17:00,66.6,59.2,31.22,NE,36,3.0,5.0,77,0.00,,,0.00,Wunderground v.1.15,2013-01-25 06:17:00,
2013-01-25 01:23:00,66.6,58.8,31.22,NE,40,3.0,3.0,76,0.00,,,0.00,Wunderground v.1.15,2013-01-25 06:23:00,
2013-01-25 01:28:00,66.6,58.8,31.22,East,82,3.0,4.0,76,0.00,,,0.00,Wunderground v.1.15,2013-01-25 06:28:00,
2013-01-25 01:34:00,66.6,59.2,31.22,NNW,334,3.0,3.0,77,0.00,,,0.00,Wunderground v.1.15,2013-01-25 06:34:00,
2013-01-25 01:40:00,66.5,59.1,31.21,NNE,13,2.0,4.0,77,0.00,,,0.00,Wunderground v.1.15,2013-01-25 06:40:00,
2013-01-25 01:46:00,66.4,58.6,31.21,East,94,3.0,4.0,76,0.00,,,0.00,Wunderground v.1.15,2013-01-25 06:46:00,
2013-01-25 01:52:00,66.3,58.5,31.21,North,10,2.0,3.0,76,0.00,,,0.00,Wunderground v.1.15,2013-01-25 06:52:00,
2013-01-25 01:57:00,66.4,58.6,31.21,NNW,340,3.0,4.0,76,0.00,,,0.00,Wunderground v.1.15,2013-01-25 06:57:00,
2013-01-25 02:02:00,66.4,58.6,31.21,NNE,12,3.0,5.0,76,0.00,,,0.00,Wunderground v.1.15,2013-01-25 07:02:00,
2013-01-25 02:08:00,66.3,58.9,31.21,SE,145,3.0,7.0,77,0.00,,,0.00,Wunderground v.1.15,2013-01-25 07:08:00,
2013-01-25 02:14:00,66.2,59.1,31.20,NNE,30,3.0,4.0,78,0.00,,,0.00,Wunderground v.1.15,2013-01-25 07:14:00,
2013-01-25 02:19:00,66.2,59.5,31.20,NNW,347,2.0,4.0,79,0.00,,,0.00,Wunderground v.1.15,2013-01-25 07:19:00,
2013-01-25 02:24:00,66.1,59.4,31.20,ESE,122,2.0,5.0,79,0.00,,,0.00,Wunderground v.1.15,2013-01-25 07:24:00,
2013-01-25 02:29:00,66.0,59.3,31.20,NNW,344,2.0,5.0,79,0.00,,,0.00,Wunderground v.1.15,2013-01-25 07:29:00,
2013-01-25 02:35:00,66.0,59.7,31.20,NNW,329,2.0,5.0,80,0.00,,,0.00,Wunderground v.1.15,2013-01-25 07:35:00,
2013-01-25 02:40:00,65.9,59.6,31.20,NE,40,3.0,3.0,80,0.00,,,0.00,Wunderground v.1.15,2013-01-25 07:40:00,
2013-01-25 02:46:00,65.9,59.6,31.20,NE,36,3.0,5.0,80,0.00,,,0.00,Wunderground v.1.15,2013-01-25 07:46:00,
2013-01-25 02:51:00,65.8,59.5,31.20,ENE,60,3.0,3.0,80,0.00,,,0.00,Wunderground v.1.15,2013-01-25 07:51:00,
2013-01-25 02:57:00,65.9,59.9,31.20,NE,41,3.0,6.0,81,0.00,,,0.00,Wunderground v.1.15,2013-01-25 07:57:00,
2013-01-25 03:02:00,65.9,59.9,31.20,NNW,343,2.0,3.0,81,0.00,,,0.00,Wunderground v.1.15,2013-01-25 08:02:00,
2013-01-25 03:08:00,66.0,60.0,31.20,NNW,330,1.0,4.0,81,0.00,,,0.00,Wunderground v.1.15,2013-01-25 08:08:00,
2013-01-25 03:13:00,66.1,60.1,31.20,East,100,2.0,3.0,81,0.00,,,0.00,Wunderground v.1.15,2013-01-25 08:13:00,
2013-01-25 03:19:00,66.1,60.1,31.20,North,349,2.0,5.0,81,0.00,,,0.00,Wunderground v.1.15,2013-01-25 08:19:00,
2013-01-25 03:25:00,66.0,59.7,31.20,North,356,2.0,3.0,80,0.00,,,0.00,Wunderground v.1.15,2013-01-25 08:25:00,
2013-01-25 03:31:00,65.8,59.8,31.20,NNE,27,2.0,3.0,81,0.00,,,0.00,Wunderground v.1.15,2013-01-25 08:31:00,
2013-01-25 03:37:00,65.5,59.2,31.20,North,355,3.0,4.0,80,0.00,,,0.00,Wunderground v.1.15,2013-01-25 08:37:00,
2013-01-25 03:43:00,65.3,59.0,31.21,West,281,3.0,6.0,80,0.00,,,0.00,Wunderground v.1.15,2013-01-25 08:43:00,
2013-01-25 03:49:00,65.2,58.9,31.21,NNE,27,3.0,6.0,80,0.00,,,0.00,Wunderground v.1.15,2013-01-25 08:49:00,
2013-01-25 03:55:00,65.1,59.1,31.21,NNE,32,3.0,5.0,81,0.00,,,0.00,Wunderground v.1.15,2013-01-25 08:55:00,
2013-01-25 04:00:00,65.0,59.0,31.21,NNE,31,3.0,3.0,81,0.00,,,0.00,Wunderground v.1.15,2013-01-25 09:00:00,
2013-01-25 04:05:00,65.0,58.7,31.21,NNW,340,3.0,5.0,80,0.00,,,0.00,Wunderground v.1.15,2013-01-25 09:05:00,
2013-01-25 04:11:00,65.0,58.7,31.21,NE,47,3.0,3.0,80,0.00,,,0.00,Wunderground v.1.15,2013-01-25 09:11:00,
2013-01-25 04:16:00,65.0,58.7,31.21,NNW,341,3.0,3.0,80,0.00,,,0.00,Wunderground v.1.15,2013-01-25 09:16:00,
2013-01-25 04:22:00,65.0,58.7,31.21,NE,40,3.0,4.0,80,0.00,,,0.00,Wunderground v.1.15,2013-01-25 09:22:00,
2013-01-25 04:28:00,65.0,59.0,31.21,NE,34,3.0,4.0,81,0.00,,,0.00,Wunderground v.1.15,2013-01-25 09:28:00,
2013-01-25 04:34:00,65.0,59.0,31.21,NNW,344,3.0,5.0,81,0.00,,,0.00,Wunderground v.1.15,2013-01-25 09:34:00,
2013-01-25 04:40:00,65.1,59.1,31.21,NNE,25,2.0,3.0,81,0.00,,,0.00,Wunderground v.1.15,2013-01-25 09:40:00,
2013-01-25 04:46:00,65.1,59.1,31.21,NE,47,2.0,4.0,81,0.00,,,0.00,Wunderground v.1.15,2013-01-25 09:46:00,
2013-01-25 04:51:00,65.1,59.1,31.21,NNW,330,2.0,4.0,81,0.00,,,0.00,Wunderground v.1.15,2013-01-25 09:51:00,
2013-01-25 04:57:00,65.1,58.8,31.21,NNE,31,2.0,4.0,80,0.00,,,0.00,Wunderground v.1.15,2013-01-25 09:57:00,
2013-01-25 05:02:00,65.1,58.4,31.21,NW,326,3.0,5.0,79,0.00,,,0.00,Wunderground v.1.15,2013-01-25 10:02:00,
2013-01-25 05:08:00,65.1,58.4,31.21,NNE,15,3.0,6.0,79,0.00,,,0.00,Wunderground v.1.15,2013-01-25 10:08:00,
2013-01-25 05:14:00,65.0,58.3,31.21,NE,50,3.0,3.0,79,0.00,,,0.00,Wunderground v.1.15,2013-01-25 10:14:00,
2013-01-25 05:19:00,64.9,58.2,31.21,NNE,25,3.0,5.0,79,0.00,,,0.00,Wunderground v.1.15,2013-01-25 10:19:00,
2013-01-25 05:25:00,64.9,58.2,31.21,NW,319,3.0,6.0,79,0.00,,,0.00,Wunderground v.1.15,2013-01-25 10:25:00,
2013-01-25 05:31:00,64.8,58.1,31.21,NNE,29,3.0,3.0,79,0.00,,,0.00,Wunderground v.1.15,2013-01-25 10:31:00,
2013-01-25 05:37:00,64.8,58.5,31.21,NNE,25,3.0,4.0,80,0.00,,,0.00,Wunderground v.1.15,2013-01-25 10:37:00,
2013-01-25 05:43:00,64.7,58.4,31.21,NNE,18,3.0,5.0,80,0.00,,,0.00,Wunderground v.1.15,2013-01-25 10:43:00,
2013-01-25 05:49:00,64.7,58.7,31.21,North,353,3.0,5.0,81,0.00,,,0.00,Wunderground v.1.15,2013-01-25 10:49:00,
2013-01-25 05:55:00,64.6,58.6,31.21,NNE,33,3.0,5.0,81,0.00,,,0.00,Wunderground v.1.15,2013-01-25 10:55:00,
2013-01-25 06:01:00,64.5,58.5,31.21,North,11,3.0,3.0,81,0.00,,,0.00,Wunderground v.1.15,2013-01-25 11:01:00,
2013-01-25 06:06:00,64.5,58.5,31.21,North,358,3.0,5.0,81,0.00,,,0.00,Wunderground v.1.15,2013-01-25 11:06:00,
2013-01-25 06:12:00,64.5,58.9,31.22,North,1,3.0,3.0,82,0.00,,,0.00,Wunderground v.1.15,2013-01-25 11:12:00,
2013-01-25 06:18:00,64.6,59.0,31.22,East,90,3.0,5.0,82,0.00,,,0.00,Wunderground v.1.15,2013-01-25 11:18:00,
2013-01-25 06:23:00,64.7,59.1,31.22,NNW,333,3.0,5.0,82,0.00,,,0.00,Wunderground v.1.15,2013-01-25 11:23:00,
2013-01-25 06:28:00,64.9,59.3,31.22,North,7,3.0,5.0,82,0.00,,,0.00,Wunderground v.1.15,2013-01-25 11:28:00,
2013-01-25 06:34:00,65.0,59.4,31.22,ENE,68,3.0,5.0,82,0.00,,,0.00,Wunderground v.1.15,2013-01-25 11:34:00,
2013-01-25 06:40:00,65.0,59.4,31.22,ENE,57,3.0,4.0,82,0.00,,,0.00,Wunderground v.1.15,2013-01-25 11:40:00,
2013-01-25 06:46:00,64.9,59.3,31.21,North,5,3.0,5.0,82,0.00,,,0.00,Wunderground v.1.15,2013-01-25 11:46:00,
2013-01-25 06:52:00,64.8,58.8,31.22,North,359,3.0,3.0,81,0.00,,,0.00,Wunderground v.1.15,2013-01-25 11:52:00,
2013-01-25 06:58:00,64.7,58.7,31.22,NNE,33,3.0,5.0,81,0.00,,,0.00,Wunderground v.1.15,2013-01-25 11:58:00,
2013-01-25 07:03:00,64.7,58.4,31.22,NNE,29,3.0,7.0,80,0.00,,,0.00,Wunderground v.1.15,2013-01-25 12:03:00,
2013-01-25 07:09:00,64.7,58.4,31.22,NNE,27,3.0,7.0,80,0.00,,,0.00,Wunderground v.1.15,2013-01-25 12:09:00,
2013-01-25 07:15:00,64.7,58.0,31.22,NNW,333,3.0,6.0,79,0.00,,,0.00,Wunderground v.1.15,2013-01-25 12:15:00,
2013-01-25 07:21:00,64.7,57.7,31.22,North,355,4.0,5.0,78,0.00,,,0.00,Wunderground v.1.15,2013-01-25 12:21:00,
2013-01-25 07:26:00,64.7,57.7,31.22,North,355,4.0,6.0,78,0.00,,,0.00,Wunderground v.1.15,2013-01-25 12:26:00,
2013-01-25 07:32:00,64.7,58.0,31.22,North,355,3.0,6.0,79,0.00,,,0.00,Wunderground v.1.15,2013-01-25 12:32:00,
2013-01-25 07:38:00,64.7,58.0,31.22,NE,47,3.0,6.0,79,0.00,,,0.00,Wunderground v.1.15,2013-01-25 12:38:00,
2013-01-25 07:44:00,64.7,57.7,31.23,NE,34,3.0,5.0,78,0.00,,,0.00,Wunderground v.1.15,2013-01-25 12:44:00,
2013-01-25 07:49:00,64.9,57.5,31.23,North,9,3.0,7.0,77,0.00,,,0.00,Wunderground v.1.15,2013-01-25 12:49:00,
2013-01-25 07:55:00,65.1,58.4,31.23,ENE,70,3.0,4.0,79,0.00,,,0.00,Wunderground v.1.15,2013-01-25 12:55:00,
2013-01-25 08:01:00,65.2,58.9,31.23,NNE,14,2.0,3.0,80,0.00,,,0.00,Wunderground v.1.15,2013-01-25 13:01:00,
2013-01-25 08:07:00,65.2,58.9,31.23,NW,312,3.0,6.0,80,0.00,,,0.00,Wunderground v.1.15,2013-01-25 13:07:00,
2013-01-25 08:13:00,65.2,58.9,31.23,North,349,3.0,5.0,80,0.00,,,0.00,Wunderground v.1.15,2013-01-25 13:13:00,
2013-01-25 08:19:00,65.2,58.9,31.24,ENE,75,3.0,5.0,80,0.00,,,0.00,Wunderground v.1.15,2013-01-25 13:19:00,
2013-01-25 08:24:00,65.2,58.9,31.24,North,4,3.0,6.0,80,0.00,,,0.00,Wunderground v.1.15,2013-01-25 13:24:00,
2013-01-25 08:30:00,65.4,59.1,31.24,NNE,18,3.0,3.0,80,0.00,,,0.00,Wunderground v.1.15,2013-01-25 13:30:00,
2013-01-25 08:35:00,65.6,59.3,31.24,NNW,336,3.0,4.0,80,0.00,,,0.00,Wunderground v.1.15,2013-01-25 13:35:00,
2013-01-25 08:41:00,65.8,59.1,31.24,North,349,3.0,4.0,79,0.00,,,0.00,Wunderground v.1.15,2013-01-25 13:41:00,
2013-01-25 08:46:00,65.9,59.2,31.25,North,1,3.0,5.0,79,0.00,,,0.00,Wunderground v.1.15,2013-01-25 13:46:00,
2013-01-25 08:52:00,65.9,58.8,31.25,NE,34,3.0,8.0,78,0.00,,,0.00,Wunderground v.1.15,2013-01-25 13:52:00,
2013-01-25 08:58:00,66.2,59.1,31.25,NE,49,4.0,8.0,78,0.00,,,0.00,Wunderground v.1.15,2013-01-25 13:58:00,
2013-01-25 09:03:00,66.8,59.4,31.25,NNW,339,4.0,4.0,77,0.00,,,0.00,Wunderground v.1.15,2013-01-25 14:03:00,
2013-01-25 09:09:00,67.5,59.7,31.25,NNE,27,3.0,4.0,76,0.00,,,0.00,Wunderground v.1.15,2013-01-25 14:09:00,
2013-01-25 09:15:00,67.8,59.6,31.25,East,89,2.0,7.0,75,0.00,,,0.00,Wunderground v.1.15,2013-01-25 14:15:00,
2013-01-25 09:21:00,68.1,59.9,31.25,North,5,3.0,5.0,75,0.00,,,0.00,Wunderground v.1.15,2013-01-25 14:21:00,
2013-01-25 09:27:00,68.2,60.0,31.25,NNE,32,3.0,5.0,75,0.00,,,0.00,Wunderground v.1.15,2013-01-25 14:27:00,
2013-01-25 09:32:00,68.4,60.2,31.26,East,99,3.0,3.0,75,0.00,,,0.00,Wunderground v.1.15,2013-01-25 14:32:00,
2013-01-25 09:38:00,68.5,59.9,31.26,NNW,346,3.0,5.0,74,0.00,,,0.00,Wunderground v.1.15,2013-01-25 14:38:00,
2013-01-25 09:44:00,68.6,60.0,31.25,NNE,22,3.0,6.0,74,0.00,,,0.00,Wunderground v.1.15,2013-01-25 14:44:00,
2013-01-25 09:50:00,68.9,60.3,31.26,NNE,24,3.0,5.0,74,0.00,,,0.00,Wunderground v.1.15,2013-01-25 14:50:00,
2013-01-25 09:56:00,69.0,60.4,31.26,NE,35,3.0,5.0,74,0.00,,,0.00,Wunderground v.1.15,2013-01-25 14:56:00,
2013-01-25 10:01:00,69.3,61.0,31.26,NE,44,3.0,4.0,75,0.00,,,0.00,Wunderground v.1.15,2013-01-25 15:01:00,
2013-01-25 10:07:00,69.5,61.2,31.26,NNE,20,3.0,8.0,75,0.00,,,0.00,Wunderground v.1.15,2013-01-25 15:07:00,
2013-01-25 10:13:00,69.7,61.0,31.26,NNW,346,3.0,3.0,74,0.00,,,0.00,Wunderground v.1.15,2013-01-25 15:13:00,
2013-01-25 10:19:00,69.9,61.2,31.26,NNW,338,3.0,6.0,74,0.00,,,0.00,Wunderground v.1.15,2013-01-25 15:19:00,
2013-01-25 10:25:00,69.2,60.2,31.26,NE,51,3.0,4.0,73,0.00,,,0.00,Wunderground v.1.15,2013-01-25 15:25:00,
2013-01-25 10:31:00,69.5,61.2,31.26,North,354,3.0,3.0,75,0.00,,,0.00,Wunderground v.1.15,2013-01-25 15:31:00,
2013-01-25 10:37:00,69.9,61.2,31.25,NNW,343,2.0,4.0,74,0.00,,,0.00,Wunderground v.1.15,2013-01-25 15:37:00,
2013-01-25 10:43:00,70.4,61.3,31.25,ENE,68,3.0,6.0,73,0.00,,,0.00,Wunderground v.1.15,2013-01-25 15:43:00,
2013-01-25 10:49:00,71.3,61.8,31.25,NNE,31,3.0,7.0,72,0.00,,,0.00,Wunderground v.1.15,2013-01-25 15:49:00,
2013-01-25 10:55:00,71.3,61.8,31.25,NNW,347,2.0,3.0,72,0.00,,,0.00,Wunderground v.1.15,2013-01-25 15:55:00,
2013-01-25 11:00:00,71.7,61.8,31.25,NNE,12,2.0,4.0,71,0.00,,,0.00,Wunderground v.1.15,2013-01-25 16:00:00,
2013-01-25 11:05:00,72.0,62.5,31.25,NNW,348,3.0,6.0,72,0.00,,,0.00,Wunderground v.1.15,2013-01-25 16:05:00,
2013-01-25 11:11:00,72.6,62.7,31.25,NNE,33,3.0,3.0,71,0.00,,,0.00,Wunderground v.1.15,2013-01-25 16:11:00,
2013-01-25 11:17:00,73.1,61.5,31.24,ESE,117,2.0,3.0,67,0.00,,,0.00,Wunderground v.1.15,2013-01-25 16:17:00,
2013-01-25 11:23:00,74.4,61.0,31.24,East,85,3.0,5.0,63,0.00,,,0.00,Wunderground v.1.15,2013-01-25 16:23:00,
2013-01-25 11:29:00,75.3,59.5,31.24,North,4,4.0,7.0,58,0.00,,,0.00,Wunderground v.1.15,2013-01-25 16:29:00,
2013-01-25 11:35:00,75.5,59.7,31.24,East,94,4.0,4.0,58,0.00,,,0.00,Wunderground v.1.15,2013-01-25 16:35:00,
2013-01-25 11:40:00,75.7,58.9,31.24,ENE,58,4.0,4.0,56,0.00,,,0.00,Wunderground v.1.15,2013-01-25 16:40:00,
2013-01-25 11:46:00,75.8,59.5,31.24,East,80,4.0,7.0,57,0.00,,,0.00,Wunderground v.1.15,2013-01-25 16:46:00,
2013-01-25 11:51:00,75.9,59.1,31.23,East,79,4.0,5.0,56,0.00,,,0.00,Wunderground v.1.15,2013-01-25 16:51:00,
2013-01-25 11:57:00,75.7,59.4,31.23,ESE,106,5.0,10.0,57,0.00,,,0.00,Wunderground v.1.15,2013-01-25 16:57:00,
2013-01-25 12:02:00,74.6,59.3,31.23,ENE,61,5.0,8.0,59,0.00,,,0.00,Wunderground v.1.15,2013-01-25 17:02:00,
2013-01-25 12:08:00,75.1,59.8,31.22,SSE,166,5.0,9.0,59,0.00,,,0.00,Wunderground v.1.15,2013-01-25 17:08:00,
2013-01-25 12:14:00,75.7,60.4,31.22,East,98,4.0,7.0,59,0.00,,,0.00,Wunderground v.1.15,2013-01-25 17:14:00,
2013-01-25 12:20:00,75.7,59.4,31.22,NNE,27,5.0,5.0,57,0.00,,,0.00,Wunderground v.1.15,2013-01-25 17:20:00,
2013-01-25 12:25:00,75.5,59.7,31.21,East,91,5.0,6.0,58,0.00,,,0.00,Wunderground v.1.15,2013-01-25 17:25:00,
2013-01-25 12:31:00,75.4,60.1,31.21,East,88,6.0,7.0,59,0.00,,,0.00,Wunderground v.1.15,2013-01-25 17:31:00,
2013-01-25 12:37:00,75.6,59.8,31.20,East,88,6.0,9.0,58,0.00,,,0.00,Wunderground v.1.15,2013-01-25 17:37:00,
2013-01-25 12:43:00,75.5,59.7,31.20,East,101,6.0,7.0,58,0.00,,,0.00,Wunderground v.1.15,2013-01-25 17:43:00,
2013-01-25 12:49:00,75.8,59.0,31.19,NE,36,5.0,7.0,56,0.00,,,0.00,Wunderground v.1.15,2013-01-25 17:49:00,
2013-01-25 12:54:00,75.8,59.0,31.19,North,1,5.0,11.0,56,0.00,,,0.00,Wunderground v.1.15,2013-01-25 17:54:00,
2013-01-25 12:59:00,75.9,58.6,31.19,ENE,63,5.0,11.0,55,0.00,,,0.00,Wunderground v.1.15,2013-01-25 17:59:00,
2013-01-25 13:05:00,75.7,59.4,31.18,East,79,6.0,10.0,57,0.00,,,0.00,Wunderground v.1.15,2013-01-25 18:05:00,
2013-01-25 13:11:00,75.5,58.2,31.18,ENE,67,6.0,7.0,55,0.00,,,0.00,Wunderground v.1.15,2013-01-25 18:11:00,
2013-01-25 13:17:00,75.8,59.0,31.18,ENE,77,6.0,7.0,56,0.00,,,0.00,Wunderground v.1.15,2013-01-25 18:17:00,
2013-01-25 13:22:00,76.0,58.2,31.17,East,80,5.0,9.0,54,0.00,,,0.00,Wunderground v.1.15,2013-01-25 18:22:00,
2013-01-25 13:28:00,75.8,58.0,31.17,East,95,5.0,9.0,54,0.00,,,0.00,Wunderground v.1.15,2013-01-25 18:28:00,
2013-01-25 13:34:00,75.6,57.8,31.17,ESE,114,6.0,9.0,54,0.00,,,0.00,Wunderground v.1.15,2013-01-25 18:34:00,
2013-01-25 13:39:00,75.3,58.5,31.17,SE,125,7.0,10.0,56,0.00,,,0.00,Wunderground v.1.15,2013-01-25 18:39:00,
2013-01-25 13:45:00,75.5,57.2,31.16,NNE,32,6.0,9.0,53,0.00,,,0.00,Wunderground v.1.15,2013-01-25 18:45:00,
2013-01-25 13:51:00,75.3,57.5,31.16,ESE,104,6.0,10.0,54,0.00,,,0.00,Wunderground v.1.15,2013-01-25 18:51:00,
2013-01-25 13:57:00,75.2,57.9,31.16,East,86,7.0,10.0,55,0.00,,,0.00,Wunderground v.1.15,2013-01-25 18:57:00,
2013-01-25 14:02:00,75.5,56.6,31.16,East,86,6.0,9.0,52,0.00,,,0.00,Wunderground v.1.15,2013-01-25 19:02:00,
2013-01-25 14:07:00,75.9,58.6,31.16,ESE,114,5.0,9.0,55,0.00,,,0.00,Wunderground v.1.15,2013-01-25 19:07:00,
2013-01-25 14:13:00,75.4,57.6,31.16,East,89,6.0,9.0,54,0.00,,,0.00,Wunderground v.1.15,2013-01-25 19:13:00,
2013-01-25 14:19:00,75.4,58.6,31.16,ENE,62,6.0,9.0,56,0.00,,,0.00,Wunderground v.1.15,2013-01-25 19:19:00,
2013-01-25 14:25:00,75.4,58.6,31.15,East,84,6.0,7.0,56,0.00,,,0.00,Wunderground v.1.15,2013-01-25 19:25:00,
2013-01-25 14:30:00,75.3,58.0,31.15,ENE,77,6.0,6.0,55,0.00,,,0.00,Wunderground v.1.15,2013-01-25 19:30:00,
2013-01-25 14:36:00,75.6,57.8,31.15,ESE,106,6.0,6.0,54,0.00,,,0.00,Wunderground v.1.15,2013-01-25 19:36:00,
2013-01-25 14:42:00,75.4,56.5,31.15,ENE,57,5.0,5.0,52,0.00,,,0.00,Wunderground v.1.15,2013-01-25 19:42:00,
2013-01-25 14:48:00,75.5,57.2,31.15,ENE,74,5.0,10.0,53,0.00,,,0.00,Wunderground v.1.15,2013-01-25 19:48:00,
2013-01-25 14:53:00,75.4,58.6,31.15,ESE,108,5.0,12.0,56,0.00,,,0.00,Wunderground v.1.15,2013-01-25 19:53:00,
2013-01-25 14:59:00,75.6,57.3,31.15,ESE,123,5.0,12.0,53,0.00,,,0.00,Wunderground v.1.15,2013-01-25 19:59:00,
2013-01-25 15:05:00,75.5,57.7,31.14,ESE,108,5.0,8.0,54,0.00,,,0.00,Wunderground v.1.15,2013-01-25 20:05:00,
2013-01-25 15:11:00,75.0,57.7,31.14,East,98,6.0,6.0,55,0.00,,,0.00,Wunderground v.1.15,2013-01-25 20:11:00,
2013-01-25 15:16:00,75.0,57.7,31.14,ENE,67,6.0,9.0,55,0.00,,,0.00,Wunderground v.1.15,2013-01-25 20:16:00,
2013-01-25 15:22:00,74.4,57.7,31.14,NNE,24,6.0,6.0,56,0.00,,,0.00,Wunderground v.1.15,2013-01-25 20:22:00,
2013-01-25 15:27:00,74.4,58.2,31.14,ENE,71,6.0,12.0,57,0.00,,,0.00,Wunderground v.1.15,2013-01-25 20:27:00,
2013-01-25 15:32:00,74.5,57.3,31.14,NNE,30,7.0,8.0,55,0.00,,,0.00,Wunderground v.1.15,2013-01-25 20:32:00,
2013-01-25 15:38:00,75.0,58.7,31.14,NNE,31,6.0,8.0,57,0.00,,,0.00,Wunderground v.1.15,2013-01-25 20:38:00,
2013-01-25 15:43:00,75.0,58.7,31.14,East,91,5.0,8.0,57,0.00,,,0.00,Wunderground v.1.15,2013-01-25 20:43:00,
2013-01-25 15:49:00,75.2,57.9,31.14,East,97,5.0,8.0,55,0.00,,,0.00,Wunderground v.1.15,2013-01-25 20:49:00,
2013-01-25 15:55:00,75.1,58.8,31.14,East,90,5.0,6.0,57,0.00,,,0.00,Wunderground v.1.15,2013-01-25 20:55:00,
2013-01-25 16:01:00,74.9,58.1,31.14,East,98,5.0,7.0,56,0.00,,,0.00,Wunderground v.1.15,2013-01-25 21:01:00,
2013-01-25 16:07:00,74.1,57.4,31.14,ESE,103,5.0,7.0,56,0.00,,,0.00,Wunderground v.1.15,2013-01-25 21:07:00,
2013-01-25 16:12:00,74.1,58.4,31.14,ESE,116,5.0,5.0,58,0.00,,,0.00,Wunderground v.1.15,2013-01-25 21:12:00,
2013-01-25 16:18:00,74.4,57.7,31.14,ESE,108,5.0,9.0,56,0.00,,,0.00,Wunderground v.1.15,2013-01-25 21:18:00,
2013-01-25 16:23:00,74.6,59.3,31.14,NE,46,5.0,5.0,59,0.00,,,0.00,Wunderground v.1.15,2013-01-25 21:23:00,
2013-01-25 16:29:00,74.4,59.1,31.14,ENE,70,5.0,6.0,59,0.00,,,0.00,Wunderground v.1.15,2013-01-25 21:29:00,
2013-01-25 16:34:00,74.2,58.9,31.14,ENE,74,5.0,8.0,59,0.00,,,0.00,Wunderground v.1.15,2013-01-25 21:34:00,
2013-01-25 16:40:00,74.0,58.8,31.14,East,87,5.0,5.0,59,0.00,,,0.00,Wunderground v.1.15,2013-01-25 21:40:00,
2013-01-25 16:46:00,74.2,58.9,31.14,ENE,75,5.0,6.0,59,0.00,,,0.00,Wunderground v.1.15,2013-01-25 21:46:00,
2013-01-25 16:52:00,74.2,58.9,31.14,ESE,115,5.0,7.0,59,0.00,,,0.00,Wunderground v.1.15,2013-01-25 21:52:00,
2013-01-25 16:58:00,74.0,58.3,31.14,East,82,5.0,7.0,58,0.00,,,0.00,Wunderground v.1.15,2013-01-25 21:58:00,
2013-01-25 17:04:00,73.8,57.6,31.14,East,85,5.0,7.0,57,0.00,,,0.00,Wunderground v.1.15,2013-01-25 22:04:00,
2013-01-25 17:10:00,73.7,58.5,31.14,ESE,104,5.0,5.0,59,0.00,,,0.00,Wunderground v.1.15,2013-01-25 22:10:00,
2013-01-25 17:16:00,73.5,57.8,31.14,ESE,114,5.0,9.0,58,0.00,,,0.00,Wunderground v.1.15,2013-01-25 22:16:00,
2013-01-25 17:22:00,73.3,58.1,31.15,NNE,29,5.0,5.0,59,0.00,,,0.00,Wunderground v.1.15,2013-01-25 22:22:00,
2013-01-25 17:28:00,73.0,57.3,31.15,ESE,105,5.0,11.0,58,0.00,,,0.00,Wunderground v.1.15,2013-01-25 22:28:00,
2013-01-25 17:34:00,72.8,58.1,31.15,ENE,76,5.0,5.0,60,0.00,,,0.00,Wunderground v.1.15,2013-01-25 22:34:00,
2013-01-25 17:40:00,72.5,59.2,31.15,ENE,74,4.0,4.0,63,0.00,,,0.00,Wunderground v.1.15,2013-01-25 22:40:00,
2013-01-25 17:45:00,72.2,57.5,31.15,ENE,76,5.0,9.0,60,0.00,,,0.00,Wunderground v.1.15,2013-01-25 22:45:00,
2013-01-25 17:51:00,72.1,58.4,31.15,East,91,4.0,4.0,62,0.00,,,0.00,Wunderground v.1.15,2013-01-25 22:51:00,
2013-01-25 17:57:00,71.9,58.6,31.15,East,90,3.0,5.0,63,0.00,,,0.00,Wunderground v.1.15,2013-01-25 22:57:00,
2013-01-25 18:02:00,71.7,58.0,31.16,ENE,60,4.0,5.0,62,0.00,,,0.00,Wunderground v.1.15,2013-01-25 23:02:00,
2013-01-25 18:07:00,71.7,58.0,31.16,ESE,105,4.0,5.0,62,0.00,,,0.00,Wunderground v.1.15,2013-01-25 23:07:00,
2013-01-25 18:13:00,71.6,56.0,31.16,East,88,4.0,4.0,58,0.00,,,0.00,Wunderground v.1.15,2013-01-25 23:13:00,
2013-01-25 18:19:00,71.6,57.4,31.16,East,82,4.0,7.0,61,0.00,,,0.00,Wunderground v.1.15,2013-01-25 23:19:00,
2013-01-25 18:24:00,71.6,57.0,31.17,East,95,4.0,6.0,60,0.00,,,0.00,Wunderground v.1.15,2013-01-25 23:24:00,
2013-01-25 18:30:00,71.6,58.3,31.17,East,93,4.0,4.0,63,0.00,,,0.00,Wunderground v.1.15,2013-01-25 23:30:00,
2013-01-25 18:36:00,71.5,57.3,31.17,ESE,102,4.0,6.0,61,0.00,,,0.00,Wunderground v.1.15,2013-01-25 23:36:00,
2013-01-25 18:42:00,71.5,57.3,31.17,East,82,3.0,5.0,61,0.00,,,0.00,Wunderground v.1.15,2013-01-25 23:42:00,
2013-01-25 18:48:00,71.4,57.7,31.17,East,90,3.0,5.0,62,0.00,,,0.00,Wunderground v.1.15,2013-01-25 23:48:00,
2013-01-25 18:53:00,71.4,58.1,31.17,ESE,103,3.0,4.0,63,0.00,,,0.00,Wunderground v.1.15,2013-01-25 23:53:00,
2013-01-25 18:59:00,71.4,58.1,31.17,East,91,4.0,5.0,63,0.00,,,0.00,Wunderground v.1.15,2013-01-25 23:59:00,
2013-01-25 19:05:00,71.3,58.1,31.18,ESE,122,3.0,4.0,63,0.00,,,0.00,Wunderground v.1.15,2013-01-26 00:05:00,
2013-01-25 19:11:00,71.3,58.5,31.18,East,98,3.0,7.0,64,0.00,,,0.00,Wunderground v.1.15,2013-01-26 00:11:00,
2013-01-25 19:17:00,71.2,58.0,31.18,East,100,3.0,7.0,63,0.00,,,0.00,Wunderground v.1.15,2013-01-26 00:17:00,
2013-01-25 19:23:00,71.1,57.9,31.18,ESE,120,2.0,3.0,63,0.00,,,0.00,Wunderground v.1.15,2013-01-26 00:23:00,
2013-01-25 19:29:00,71.1,57.9,31.18,East,81,2.0,6.0,63,0.00,,,0.00,Wunderground v.1.15,2013-01-26 00:29:00,
2013-01-25 19:34:00,71.1,57.9,31.18,East,82,3.0,4.0,63,0.00,,,0.00,Wunderground v.1.15,2013-01-26 00:34:00,
2013-01-25 19:39:00,71.0,58.2,31.18,East,96,2.0,5.0,64,0.00,,,0.00,Wunderground v.1.15,2013-01-26 00:39:00,
2013-01-25 19:45:00,71.0,58.2,31.18,East,98,3.0,5.0,64,0.00,,,0.00,Wunderground v.1.15,2013-01-26 00:45:00,
2013-01-25 19:50:00,71.1,57.9,31.18,East,92,3.0,3.0,63,0.00,,,0.00,Wunderground v.1.15,2013-01-26 00:50:00,
2013-01-25 19:55:00,71.1,58.7,31.18,ENE,71,3.0,5.0,65,0.00,,,0.00,Wunderground v.1.15,2013-01-26 00:55:00,
2013-01-25 20:01:00,71.2,58.8,31.18,East,85,3.0,3.0,65,0.00,,,0.00,Wunderground v.1.15,2013-01-26 01:01:00,
2013-01-25 20:07:00,71.2,59.3,31.18,ENE,77,3.0,5.0,66,0.00,,,0.00,Wunderground v.1.15,2013-01-26 01:07:00,
2013-01-25 20:13:00,71.2,58.8,31.18,ESE,115,3.0,4.0,65,0.00,,,0.00,Wunderground v.1.15,2013-01-26 01:13:00,
2013-01-25 20:18:00,71.2,59.3,31.18,ENE,66,3.0,5.0,66,0.00,,,0.00,Wunderground v.1.15,2013-01-26 01:18:00,
2013-01-25 20:24:00,71.2,58.8,31.18,East,92,4.0,4.0,65,0.00,,,0.00,Wunderground v.1.15,2013-01-26 01:24:00,
2013-01-25 20:30:00,71.3,58.1,31.18,East,88,4.0,4.0,63,0.00,,,0.00,Wunderground v.1.15,2013-01-26 01:30:00,
2013-01-25 20:36:00,71.4,58.1,31.18,East,89,4.0,5.0,63,0.00,,,0.00,Wunderground v.1.15,2013-01-26 01:36:00,
2013-01-25 20:41:00,71.4,58.1,31.18,NE,46,3.0,3.0,63,0.00,,,0.00,Wunderground v.1.15,2013-01-26 01:41:00,
2013-01-25 20:47:00,71.5,58.2,31.18,East,88,3.0,4.0,63,0.00,,,0.00,Wunderground v.1.15,2013-01-26 01:47:00,
2013-01-25 20:53:00,71.5,59.5,31.18,East,90,3.0,5.0,66,0.00,,,0.00,Wunderground v.1.15,2013-01-26 01:53:00,
2013-01-25 20:58:00,71.5,60.0,31.18,ESE,103,3.0,7.0,67,0.00,,,0.00,Wunderground v.1.15,2013-01-26 01:58:00,
2013-01-25 21:03:00,71.4,59.0,31.18,ESE,104,4.0,4.0,65,0.00,,,0.00,Wunderground v.1.15,2013-01-26 02:03:00,
2013-01-25 21:09:00,71.4,58.1,31.18,ESE,111,4.0,6.0,63,0.00,,,0.00,Wunderground v.1.15,2013-01-26 02:09:00,
2013-01-25 21:15:00,71.5,59.1,31.18,ENE,76,3.0,5.0,65,0.00,,,0.00,Wunderground v.1.15,2013-01-26 02:15:00,
2013-01-25 21:21:00,71.5,59.5,31.18,ESE,104,3.0,5.0,66,0.00,,,0.00,Wunderground v.1.15,2013-01-26 02:21:00,
2013-01-25 21:27:00,71.5,59.1,31.19,East,98,4.0,5.0,65,0.00,,,0.00,Wunderground v.1.15,2013-01-26 02:27:00,
2013-01-25 21:32:00,71.5,59.1,31.19,East,94,3.0,4.0,65,0.00,,,0.00,Wunderground v.1.15,2013-01-26 02:32:00,
2013-01-25 21:38:00,71.5,60.0,31.18,ESE,113,3.0,4.0,67,0.00,,,0.00,Wunderground v.1.15,2013-01-26 02:38:00,
2013-01-25 21:44:00,71.3,59.8,31.18,ESE,108,3.0,3.0,67,0.00,,,0.00,Wunderground v.1.15,2013-01-26 02:44:00,
2013-01-25 21:50:00,71.3,60.2,31.18,NE,51,3.0,3.0,68,0.00,,,0.00,Wunderground v.1.15,2013-01-26 02:50:00,
2013-01-25 21:55:00,71.2,60.1,31.19,East,94,3.0,3.0,68,0.00,,,0.00,Wunderground v.1.15,2013-01-26 02:55:00,
2013-01-25 22:01:00,71.3,59.8,31.19,ESE,104,3.0,4.0,67,0.00,,,0.00,Wunderground v.1.15,2013-01-26 03:01:00,
2013-01-25 22:07:00,71.5,60.0,31.19,East,84,3.0,4.0,67,0.00,,,0.00,Wunderground v.1.15,2013-01-26 03:07:00,
2013-01-25 22:13:00,71.4,60.7,31.19,East,99,3.0,4.0,69,0.00,,,0.00,Wunderground v.1.15,2013-01-26 03:13:00,
2013-01-25 22:18:00,71.4,60.7,31.19,ESE,106,3.0,4.0,69,0.00,,,0.00,Wunderground v.1.15,2013-01-26 03:18:00,
2013-01-25 22:24:00,71.5,60.4,31.19,ENE,64,3.0,5.0,68,0.00,,,0.00,Wunderground v.1.15,2013-01-26 03:24:00,
2013-01-25 22:30:00,71.5,60.8,31.19,ENE,72,3.0,3.0,69,0.00,,,0.00,Wunderground v.1.15,2013-01-26 03:30:00,
2013-01-25 22:36:00,71.5,60.4,31.19,East,83,3.0,5.0,68,0.00,,,0.00,Wunderground v.1.15,2013-01-26 03:36:00,
2013-01-25 22:41:00,71.6,60.5,31.19,ESE,103,4.0,4.0,68,0.00,,,0.00,Wunderground v.1.15,2013-01-26 03:41:00,
2013-01-25 22:47:00,71.5,60.4,31.19,East,99,3.0,5.0,68,0.00,,,0.00,Wunderground v.1.15,2013-01-26 03:47:00,
2013-01-25 22:53:00,71.5,60.8,31.19,ESE,107,3.0,5.0,69,0.00,,,0.00,Wunderground v.1.15,2013-01-26 03:53:00,
2013-01-25 22:59:00,71.6,60.5,31.19,ESE,104,4.0,5.0,68,0.00,,,0.00,Wunderground v.1.15,2013-01-26 03:59:00,
2013-01-25 23:04:00,71.6,60.9,31.19,East,86,3.0,6.0,69,0.00,,,0.00,Wunderground v.1.15,2013-01-26 04:04:00,
2013-01-25 23:10:00,71.6,60.9,31.18,ESE,110,4.0,4.0,69,0.00,,,0.00,Wunderground v.1.15,2013-01-26 04:10:00,
2013-01-25 23:15:00,71.6,60.9,31.18,ESE,109,3.0,4.0,69,0.00,,,0.00,Wunderground v.1.15,2013-01-26 04:15:00,
2013-01-25 23:20:00,71.5,60.8,31.19,East,100,4.0,4.0,69,0.00,,,0.00,Wunderground v.1.15,2013-01-26 04:20:00,
2013-01-25 23:26:00,71.4,60.3,31.19,East,96,4.0,5.0,68,0.00,,,0.00,Wunderground v.1.15,2013-01-26 04:26:00,
2013-01-25 23:31:00,71.4,61.1,31.19,East,81,3.0,3.0,70,0.00,,,0.00,Wunderground v.1.15,2013-01-26 04:31:00,
2013-01-25 23:37:00,71.3,61.0,31.19,East,93,3.0,5.0,70,0.00,,,0.00,Wunderground v.1.15,2013-01-26 04:37:00,
2013-01-25 23:43:00,71.4,61.1,31.19,ESE,117,3.0,4.0,70,0.00,,,0.00,Wunderground v.1.15,2013-01-26 04:43:00,
2013-01-25 23:49:00,71.4,61.1,31.18,ENE,63,3.0,5.0,70,0.00,,,0.00,Wunderground v.1.15,2013-01-26 04:49:00,
2013-01-25 23:54:00,71.3,61.4,31.18,ESE,103,3.0,5.0,71,0.00,,,0.00,Wunderground v.1.15,2013-01-26 04:54:00,